Weather History for KBZN - September, 2013

Change the Weather History Date:

Thursday, September 12, 2013

  Actual Average Record
Temperature  
Mean Temperature 65 °F 59 °F  
Max Temperature 83 °F 77 °F 91 °F (1953)
Min Temperature 46 °F 42 °F 20 °F (1989)
Degree Days  
Heating Degree Days 0    
Month to date heating degree days 11  
Since 1 July heating degree days 14  
Cooling Degree Days 0    
Month to date cooling degree days 23  
Year to date cooling degree days 284  
Growing Degree Days 14 (Base 50)    
Moisture  
Dew Point 44 °F    
Average Humidity 56    
Maximum Humidity 83    
Minimum Humidity 29    
Precipitation  
Precipitation 0.00 in 0.03 in 0.85 in (1978)
Month to date precipitation 0.24 0.41  
Year to date precipitation 8.54 10.91  
Snow  
Snow 0.00 in 0.00 in T in (1970)
Month to date snowfall 0.0 0.0  
Since 1 July snowfall 0.0 T  
Since 1 September snowfall 0.0 0.0  
Snow Depth 0.00 in    
Sea Level Pressure  
Sea Level Pressure 30.11 in    
Wind  
Wind Speed 5 mph (SSE)    
Max Wind Speed 14 mph    
Max Gust Speed 17 mph    
Visibility 10 miles    
Events      
T = Trace of Precipitation, MM = Missing Value Source: NWS Daily Summary

Daily Weather History Graph

Daily Weather History Graph

Search for Another Location

Airport or City:

Trip Planner

Search our weather history database for the weather conditions in past years. The results will help you decide how hot, cold, wet, or windy it might be!

Date:

Astronomy

Sep. 12, 2013 Rise Set
Actual Time 6:59 AM MDT 7:41 PM MDT
Civil Twilight 6:29 AM MDT 8:11 PM MDT
Nautical Twilight 5:53 AM MDT 8:46 PM MDT
Astronomical Twilight 5:16 AM MDT 9:23 PM MDT
Moon 2:51 PM MDT (9/12) No Moon Set
Length of Visible Light 13h 41m
Length of Day
12h 41m
Waxing Crescent, 51% of the Moon is Illuminated
Sep 12
Waxing Crescent
Sep 19
Full
Sep 26
Last Quarter
Oct 4
New
Oct 11
First Quarter

Hourly Weather History & Observations

Time (MDT) Temp. Dew Point Humidity Pressure Visibility Wind Dir Wind Speed Gust Speed Precip Events Conditions
12:56 AM 66.0 °F 44.1 °F 45% 30.15 in 10.0 mi Calm Calm - N/A   Clear
1:56 AM 66.0 °F 43.0 °F 43% 30.16 in 10.0 mi Calm Calm - N/A   Clear
2:56 AM 63.0 °F 43.0 °F 48% 30.17 in 10.0 mi Calm Calm - N/A   Clear
3:56 AM 59.0 °F 44.1 °F 58% 30.17 in 10.0 mi Calm Calm - N/A   Clear
4:56 AM 54.0 °F 43.0 °F 66% 30.18 in 10.0 mi WNW 9.2 mph - N/A   Clear
5:56 AM 55.9 °F 44.1 °F 64% 30.18 in 10.0 mi Calm Calm - N/A   Clear
6:56 AM 48.0 °F 43.0 °F 83% 30.21 in 10.0 mi Calm Calm - N/A   Clear
7:56 AM 53.1 °F 45.0 °F 74% 30.22 in 10.0 mi Calm Calm - N/A   Clear
8:56 AM 61.0 °F 44.1 °F 54% 30.20 in 10.0 mi Calm Calm - N/A   Clear
9:56 AM 66.0 °F 44.1 °F 45% 30.19 in 10.0 mi NW 3.5 mph - N/A   Clear
10:56 AM 66.0 °F 45.0 °F 47% 30.17 in 10.0 mi NW 8.1 mph - N/A   Clear
11:56 AM 71.1 °F 45.0 °F 39% 30.14 in 10.0 mi NNW 6.9 mph - N/A   Clear
12:56 PM 73.0 °F 45.0 °F 37% 30.11 in 10.0 mi Variable 4.6 mph - N/A   Clear
1:56 PM 75.0 °F 44.1 °F 33% 30.08 in 10.0 mi SW 6.9 mph - N/A   Clear
2:56 PM 79.0 °F 44.1 °F 29% 30.05 in 10.0 mi Calm Calm - N/A   Clear
3:56 PM 78.1 °F 43.0 °F 29% 30.04 in 10.0 mi Calm Calm - N/A   Partly Cloudy
4:56 PM 78.1 °F 44.1 °F 30% 30.04 in 10.0 mi SE 13.8 mph - N/A   Clear
5:56 PM 75.0 °F 45.0 °F 34% 30.02 in 10.0 mi SE 12.7 mph - N/A   Partly Cloudy
6:56 PM 73.0 °F 46.0 °F 38% 30.04 in 10.0 mi SE 11.5 mph - N/A   Mostly Cloudy
7:56 PM 71.1 °F 46.9 °F 42% 30.04 in 10.0 mi SE 6.9 mph - N/A   Overcast
8:56 PM 72.0 °F 45.0 °F 38% 30.01 in 10.0 mi SSE 6.9 mph - N/A   Overcast
9:56 PM 70.0 °F 44.1 °F 39% 30.00 in 10.0 mi East 3.5 mph - N/A   Overcast
10:56 PM 66.0 °F 44.1 °F 45% 29.99 in 10.0 mi SSE 8.1 mph - N/A   Clear
11:56 PM 63.0 °F 45.0 °F 52% 29.98 in 10.0 mi SSE 5.8 mph - N/A   Clear